Location: St. Louis
(38.6270°N, 90.1994°W)
Time: 09:29:30
(UTC-06:00)

SR - Pass Details

Date: 08 December 2021
Orbit: 582 x 872 km, 66.7° (Epoch: 21 January)

Event Time Altitude Azimuth Distance (km) Brightness Sun altitude
Rises 21:44:32 0° 202° (SSW) 3,018 - -58.4°
Reaches altitude 10° 21:46:55 10° 201° (SSW) 2,064 - -58.9°
Maximum altitude 21:51:32 74° 117° (ESE) 653 - -59.7°
Drops below altitude 10° 21:55:52 10° 32° (NNE) 1,946 - -60.5°
Sets 21:58:04 0° 31° (NNE) 2,832 - -60.9°
